Temp
-15 -15 -15 -15 -15 -15 -15 -15 -15 -15 -15 -14 -14 -14 -14 -14 -13 -13 -13 -13 -13 -13 -13 -13 -13 -13 -13 -13 -13 -13 -13 -13 -13 -13 -14 -14 -14 -14 -14 -13 -13 -13 -13 -13 -13 -12 -12 -12 -12 -13 -13 -13 -12 -12
-15 -15 -15 -15 -15 -15 -15 -15 -15 -15 -15 -15 -14 -14 -15 -15 -14 -14 -13 -13 -13 -13 -13 -13 -13 -13 -13 -13 -13 -13 -13 -13 -13 -13 -13 -13 -13 -13 -14 -14 -14 -14 -14 -14 -14 -13 -13 -13 -13 -13 -13 -13 -13 -13
-15 -15 -15 -15 -15 -15 -15 -14 -14 -14 -15 -15 -15 -15 -15 -15 -15 -14 -14 -14 -14 -13 -13 -13 -13 -13 -13 -13 -13 -13 -13 -13 -13 -13 -13 -13 -14 -14 -14 -14 -14 -14 -14 -14 -14 -14 -14 -14 -14 -13 -13 -13 -13 -12
-15 -15 -15 -15 -15 -15 -15 -15 -15 -15 -14 -15 -15 -14 -15 -15 -14 -14 -15 -14 -14 -13 -13 -13 -13 -13 -13 -14 -14 -13 -13 -13 -13 -13 -14 -14 -14 -14 -14 -14 -14 -14 -15 -14 -14 -14 -14 -14 -13 -13 -13 -13 -13 -13
-15 -15 -15 -15 -15 -15 -15 -15 -15 -15 -15 -15 -15 -14 -14 -14 -15 -14 -14 -15 -14 -14 -14 -13 -13 -14 -14 -14 -15 -15 -14 -14 -14 -13 -14 -14 -14 -14 -14 -14 -14 -14 -14 -14 -14 -13 -13 -13 -13 -13 -14 -13 -13 -13
-15 -15 -15 -15 -15 -15 -15 -15 -15 -15 -15 -15 -15 -14 -14 -14 -14 -14 -15 -15 -14 -14 -14 -14 -14 -14 -14 -15 -15 -15 -15 -15 -15 -15 -15 -14 -14 -13 -13 -14 -14 -13 -13 -13 -13 -14 -14 -14 -14 -14 -14 -14 -13 -13
-16 -15 -16 -15 -15 -15 -15 -16 -16 -16 -15 -15 -15 -15 -15 -14 -14 -14 -14 -14 -15 -14 -14 -14 -14 -15 -15 -15 -15 -15 -16 -15 -15 -15 -15 -15 -15 -15 -15 -15 -14 -15 -15 -14 -13 -13 -14 -14 -14 -14 -14 -14 -13 -13
-16 -16 -16 -16 -16 -16 -16 -16 -16 -16 -16 -16 -15 -15 -15 -15 -15 -14 -14 -14 -14 -15 -15 -15 -15 -15 -15 -15 -16 -16 -16 -16 -16 -16 -16 -16 -16 -16 -15 -15 -15 -15 -15 -15 -15 -15 -15 -15 -15 -14 -14 -14 -14 -14
-16 -16 -16 -16 -16 -16 -16 -16 -17 -16 -16 -16 -16 -15 -15 -15 -15 -15 -14 -15 -15 -15 -15 -16 -16 -16 -16 -16 -16 -16 -16 -16 -16 -16 -16 -16 -17 -17 -16 -16 -16 -16 -16 -16 -16 -16 -15 -15 -15 -14 -14 -14 -14 -14
-16 -16 -16 -16 -17 -17 -17 -17 -17 -17 -17 -16 -16 -16 -15 -16 -16 -15 -15 -15 -15 -16 -16 -16 -17 -17 -17 -17 -17 -17 -17 -16 -16 -16 -17 -17 -17 -17 -17 -16 -16 -16 -16 -16 -16 -16 -15 -15 -16 -16 -16 -16 -15 -15
-17 -17 -17 -17 -17 -17 -17 -17 -17 -17 -17 -17 -17 -17 -17 -17 -17 -16 -16 -16 -16 -16 -16 -17 -18 -18 -18 -18 -18 -18 -17 -17 -17 -17 -17 -17 -17 -17 -17 -17 -17 -17 -16 -17 -16 -16 -16 -16 -16 -17 -17 -17 -17 -17
-18 -18 -19 -19 -19 -19 -19 -18 -18 -18 -18 -18 -18 -18 -18 -18 -18 -17 -16 -17 -18 -17 -17 -18 -18 -18 -18 -18 -18 -18 -18 -17 -17 -17 -17 -17 -17 -17 -17 -17 -17 -17 -16 -16 -17 -17 -17 -17 -17 -17 -18 -18 -19 -19
-19 -19 -20 -20 -21 -20 -20 -20 -20 -19 -19 -19 -19 -19 -19 -19 -18 -18 -18 -19 -19 -19 -18 -18 -18 -18 -18 -18 -18 -18 -18 -17 -17 -17 -17 -18 -18 -18 -18 -18 -17 -17 -17 -17 -18 -18 -18 -18 -19 -19 -19 -20 -20 -20
-21 -21 -21 -21 -21 -21 -21 -21 -20 -20 -20 -20 -20 -20 -20 -20 -19 -20 -20 -20 -20 -19 -19 -19 -19 -19 -19 -19 -19 -19 -19 -18 -18 -18 -19 -19 -19 -18 -18 -18 -18 -18 -18 -18 -18 -18 -19 -19 -20 -21 -22 -22 -22 -22
-22 -22 -22 -21 -21 -21 -21 -21 -21 -21 -21 -21 -21 -20 -20 -20 -20 -21 -20 -20 -20 -20 -20 -20 -20 -20 -20 -19 -19 -19 -19 -19 -19 -20 -20 -20 -19 -19 -19 -19 -19 -19 -19 -19 -20 -20 -20 -20 -21 -21 -22 -23 -23 -23
-22 -22 -21 -21 -21 -21 -21 -21 -21 -21 -21 -21 -21 -21 -21 -21 -21 -21 -21 -21 -21 -20 -20 -20 -20 -20 -20 -20 -19 -19 -19 -19 -21 -22 -21 -20 -20 -20 -19 -19 -20 -20 -20 -20 -21 -22 -22 -22 -23 -22 -22 -23 -23 -23
-22 -22 -22 -22 -22 -22 -22 -22 -21 -21 -22 -21 -22 -22 -22 -22 -22 -22 -22 -21 -21 -21 -21 -21 -21 -21 -21 -20 -20 -20 -21 -23 -23 -22 -21 -21 -21 -21 -22 -22 -22 -22 -22 -23 -23 -23 -23 -24 -24 -24 -23 -23 -23 -23
-23 -23 -23 -23 -23 -23 -22 -22 -22 -22 -22 -22 -23 -22 -22 -22 -22 -22 -22 -22 -22 -22 -22 -22 -22 -21 -21 -20 -21 -22 -22 -22 -22 -21 -21 -22 -23 -24 -24 -24 -24 -24 -24 -24 -24 -24 -24 -25 -24 -24 -24 -24 -23 -23
-24 -24 -24 -23 -23 -23 -23 -23 -23 -23 -23 -23 -23 -23 -23 -23 -23 -23 -24 -24 -24 -24 -24 -23 -23 -22 -22 -23 -23 -23 -23 -23 -24 -23 -23 -24 -25 -25 -25 -25 -25 -24 -24 -24 -24 -25 -25 -25 -25 -24 -24 -24 -24 -24
-25 -25 -24 -24 -24 -24 -24 -23 -23 -23 -24 -24 -24 -24 -24 -24 -25 -25 -26 -26 -27 -26 -25 -24 -24 -25 -25 -25 -25 -25 -25 -25 -26 -26 -25 -25 -25 -25 -25 -24 -24 -25 -25 -25 -25 -25 -25 -25 -25 -25 -24 -24 -24 -24
-27 -27 -27 -27 -27 -27 -26 -26 -26 -26 -26 -27 -26 -27 -27 -27 -27 -28 -28 -28 -27 -26 -27 -27 -27 -27 -27 -27 -27 -27 -27 -27 -27 -26 -25 -25 -25 -25 -25 -25 -25 -25 -25 -25 -25 -25 -25 -25 -25 -25 -25 -25 -25 -25
-30 -30 -31 -31 -31 -31 -30 -30 -29 -29 -29 -28 -28 -29 -28 -28 -28 -28 -27 -27 -27 -28 -29 -29 -28 -28 -28 -27 -27 -27 -27 -27 -27 -27 -26 -26 -25 -25 -26 -26 -26 -26 -26 -26 -26 -26 -25 -26 -26 -26 -27 -27 -28 -27
-31 -31 -31 -31 -31 -31 -30 -30 -30 -30 -30 -30 -30 -29 -29 -29 -29 -29 -28 -28 -28 -30 -30 -30 -29 -29 -29 -28 -28 -27 -28 -28 -28 -27 -27 -28 -28 -28 -27 -28 -28 -28 -28 -28 -29 -28 -27 -28 -29 -29 -29 -29 -29 -29
-32 -32 -32 -32 -32 -31 -31 -31 -31 -31 -31 -30 -30 -30 -29 -29 -30 -31 -30 -30 -31 -30 -30 -30 -30 -29 -29 -29 -29 -29 -29 -30 -30 -30 -30 -30 -29 -29 -29 -29 -29 -30 -30 -30 -30 -29 -29 -30 -31 -30 -31 -31 -31 -30
-32 -32 -33 -32 -32 -32 -32 -32 -32 -31 -31 -31 -32 -32 -32 -32 -32 -32 -30 -30 -30 -29 -29 -30 -30 -31 -31 -31 -31 -31 -32 -32 -32 -32 -32 -32 -32 -31 -31 -31 -30 -29 -31 -31 -31 -31 -31 -31 -32 -32 -32 -32 -31 -31
-32 -32 -32 -33 -33 -33 -32 -33 -32 -32 -33 -33 -33 -33 -33 -33 -33 -32 -30 -31 -31 -32 -32 -32 -33 -33 -33 -33 -33 -33 -33 -34 -34 -34 -32 -32 -32 -32 -31 -30 -30 -30 -32 -32 -32 -32 -32 -32 -32 -32 -32 -32 -31 -31
-32 -32 -33 -32 -32 -32 -33 -33 -33 -33 -33 -33 -33 -33 -34 -34 -33 -32 -32 -32 -33 -33 -34 -34 -34 -33 -33 -34 -34 -33 -32 -32 -33 -32 -32 -32 -32 -32 -32 -31 -31 -31 -32 -32 -33 -33 -33 -33 -33 -32 -32 -31 -31 -31
-32 -32 -32 -32 -32 -33 -33 -33 -34 -34 -34 -34 -34 -34 -34 -33 -33 -33 -33 -34 -34 -34 -34 -34 -34 -34 -33 -32 -32 -32 -32 -33 -32 -32 -32 -32 -32 -33 -32 -33 -33 -32 -32 -32 -32 -33 -32 -33 -32 -32 -32 -31 -31 -31
-33 -33 -33 -33 -33 -33 -33 -34 -34 -34 -34 -34 -34 -34 -34 -34 -33 -34 -34 -34 -34 -34 -34 -34 -33 -34 -33 -33 -32 -33 -33 -33 -33 -32 -32 -32 -33 -33 -34 -34 -34 -34 -33 -32 -32 -32 -32 -33 -32 -32 -32 -32 -31 -31
-34 -33 -33 -33 -33 -34 -34 -34 -34 -34 -35 -35 -34 -34 -34 -33 -34 -35 -35 -34 -34 -34 -34 -33 -33 -33 -32 -32 -32 -32 -32 -32 -32 -32 -33 -33 -33 -33 -33 -34 -34 -34 -34 -33 -32 -32 -33 -33 -33 -32 -32 -31 -31 -31
-34 -34 -34 -34 -34 -34 -34 -35 -35 -35 -34 -34 -34 -35 -34 -34 -34 -34 -34 -34 -35 -33 -33 -32 -32 -32 -32 -32 -32 -32 -31 -31 -32 -32 -32 -32 -32 -32 -32 -32 -33 -34 -34 -33 -32 -32 -33 -33 -33 -33 -32 -31 -31 -30
-35 -35 -35 -35 -35 -35 -35 -35 -34 -34 -34 -35 -34 -34 -34 -35 -33 -33 -34 -34 -34 -33 -32 -31 -31 -32 -32 -32 -32 -32 -32 -32 -31 -32 -32 -32 -32 -32 -32 -32 -33 -33 -34 -33 -32 -32 -33 -33 -33 -32 -31 -31 -30 -30
-35 -35 -35 -35 -35 -34 -35 -35 -35 -34 -34 -34 -34 -34 -34 -34 -34 -34 -34 -33 -33 -32 -32 -32 -32 -32 -32 -32 -32 -32 -32 -31 -32 -32 -32 -32 -32 -33 -33 -33 -33 -33 -33 -32 -32 -32 -33 -33 -32 -31 -31 -31 -30 -30
Height
5702 5707 5711 5713 5715 5717 5718 5719 5720 5721 5722 5723 5724 5724 5724 5723 5723 5723 5723 5723 5724 5723 5723 5722 5722 5722 5722 5722 5722 5722 5723 5722 5721 5721 5720 5720 5719 5719 5718 5717 5716 5716 5714 5715 5715 5713 5712 5710 5708 5706 5705 5703 5700 5698
5691 5696 5701 5704 5706 5707 5709 5711 5713 5715 5715 5715 5717 5718 5718 5718 5718 5718 5718 5719 5719 5719 5720 5719 5718 5718 5718 5718 5718 5718 5719 5718 5718 5717 5717 5715 5714 5714 5713 5712 5710 5710 5708 5709 5709 5706 5705 5703 5701 5698 5697 5696 5693 5690
5678 5684 5689 5694 5696 5699 5700 5703 5705 5706 5708 5709 5709 5710 5711 5712 5711 5712 5713 5712 5713 5713 5714 5714 5713 5713 5713 5713 5712 5713 5713 5713 5712 5712 5712 5711 5711 5711 5709 5708 5706 5702 5701 5704 5704 5699 5699 5696 5691 5691 5689 5687 5684 5681
5664 5671 5677 5681 5685 5689 5691 5694 5697 5698 5698 5700 5702 5703 5703 5703 5704 5704 5704 5706 5706 5707 5707 5708 5707 5707 5707 5707 5707 5706 5707 5707 5707 5707 5707 5705 5704 5704 5705 5704 5702 5696 5698 5699 5699 5696 5696 5689 5685 5683 5682 5678 5675 5672
5650 5657 5663 5667 5672 5676 5679 5683 5687 5689 5689 5691 5692 5694 5696 5695 5695 5696 5697 5697 5698 5699 5699 5700 5701 5701 5699 5699 5699 5698 5698 5699 5700 5700 5700 5700 5699 5696 5698 5699 5696 5691 5690 5691 5690 5689 5687 5684 5680 5676 5673 5670 5666 5662
5635 5642 5649 5654 5658 5662 5667 5672 5676 5678 5680 5681 5682 5683 5685 5686 5687 5688 5688 5689 5688 5689 5689 5689 5691 5691 5691 5692 5692 5691 5690 5688 5689 5690 5690 5690 5690 5690 5689 5690 5687 5686 5683 5680 5677 5674 5672 5671 5670 5667 5664 5660 5655 5651
5617 5626 5634 5641 5644 5648 5653 5659 5663 5666 5668 5671 5672 5673 5675 5675 5676 5678 5679 5681 5679 5678 5679 5679 5680 5683 5681 5681 5682 5683 5683 5682 5681 5680 5681 5680 5680 5679 5679 5678 5677 5675 5673 5670 5665 5663 5660 5657 5655 5652 5648 5644 5640 5636
5602 5610 5619 5626 5630 5635 5639 5644 5648 5652 5656 5659 5661 5662 5663 5664 5665 5666 5667 5667 5668 5668 5668 5669 5671 5672 5671 5670 5671 5672 5673 5673 5672 5671 5673 5671 5670 5668 5667 5668 5666 5663 5658 5656 5655 5652 5650 5646 5642 5638 5634 5630 5625 5620
5586 5594 5602 5610 5616 5621 5625 5630 5634 5638 5642 5646 5647 5649 5651 5653 5653 5653 5654 5655 5656 5659 5655 5658 5659 5660 5661 5660 5660 5660 5659 5660 5660 5661 5660 5660 5659 5656 5657 5656 5653 5648 5644 5645 5643 5640 5636 5633 5630 5626 5621 5616 5611 5605
5572 5579 5587 5594 5601 5605 5611 5615 5620 5623 5628 5632 5633 5635 5637 5639 5640 5642 5642 5642 5643 5643 5644 5646 5649 5649 5649 5650 5649 5650 5647 5648 5647 5648 5647 5648 5648 5647 5645 5643 5638 5635 5635 5629 5624 5623 5623 5619 5615 5610 5605 5601 5596 5591
5557 5565 5572 5579 5585 5592 5597 5602 5605 5609 5612 5616 5619 5621 5623 5624 5626 5627 5628 5630 5630 5631 5632 5634 5635 5636 5637 5637 5637 5637 5635 5635 5635 5637 5637 5635 5636 5635 5631 5625 5623 5620 5619 5617 5614 5611 5606 5602 5598 5595 5590 5584 5578 5572
5544 5552 5560 5567 5573 5578 5582 5587 5592 5595 5599 5602 5605 5607 5609 5611 5611 5612 5613 5615 5617 5616 5618 5619 5621 5622 5623 5624 5624 5623 5623 5622 5621 5623 5622 5621 5624 5619 5614 5612 5608 5604 5602 5600 5597 5593 5588 5584 5579 5575 5570 5566 5561 5555
5533 5539 5546 5553 5558 5564 5569 5573 5576 5579 5583 5587 5590 5592 5596 5597 5596 5597 5600 5602 5602 5603 5604 5605 5606 5607 5607 5609 5608 5608 5606 5607 5607 5607 5608 5609 5604 5599 5595 5593 5591 5590 5588 5584 5579 5575 5571 5566 5562 5556 5552 5545 5540 5534
5520 5528 5535 5541 5547 5553 5557 5559 5563 5567 5570 5573 5575 5578 5580 5580 5583 5585 5585 5587 5588 5589 5590 5592 5592 5592 5592 5592 5591 5591 5591 5590 5590 5593 5594 5587 5581 5579 5578 5576 5573 5570 5567 5564 5559 5556 5552 5548 5543 5537 5531 5525 5519 5514
5508 5516 5523 5529 5535 5540 5544 5547 5551 5556 5558 5561 5563 5564 5567 5569 5570 5570 5570 5572 5573 5574 5575 5576 5576 5577 5576 5576 5577 5575 5575 5575 5574 5574 5569 5566 5563 5561 5559 5557 5554 5550 5548 5545 5540 5536 5532 5527 5523 5521 5514 5508 5500 5496
5496 5503 5509 5514 5519 5525 5529 5533 5537 5541 5544 5548 5550 5552 5554 5555 5554 5554 5554 5554 5556 5558 5559 5559 5559 5559 5559 5560 5563 5560 5563 5562 5557 5549 5549 5547 5544 5541 5540 5537 5534 5531 5526 5523 5518 5513 5510 5506 5502 5500 5497 5490 5482 5478
5483 5488 5494 5500 5505 5510 5514 5519 5523 5527 5531 5535 5539 5538 5538 5537 5536 5536 5537 5539 5540 5540 5540 5540 5540 5540 5542 5543 5546 5545 5546 5540 5533 5531 5531 5528 5526 5524 5521 5519 5514 5510 5507 5503 5499 5495 5492 5487 5483 5479 5476 5474 5466 5462
5470 5476 5482 5486 5491 5496 5500 5504 5509 5514 5518 5521 5522 5521 5522 5522 5522 5521 5521 5522 5523 5521 5521 5521 5522 5524 5524 5527 5529 5526 5519 5516 5513 5511 5511 5511 5506 5504 5501 5498 5496 5492 5489 5485 5479 5478 5473 5468 5465 5461 5456 5453 5452 5445
5459 5464 5468 5473 5477 5483 5487 5491 5497 5500 5502 5505 5505 5505 5506 5508 5507 5505 5505 5504 5503 5502 5501 5503 5500 5506 5509 5507 5503 5499 5495 5492 5489 5488 5488 5490 5483 5482 5480 5476 5473 5471 5468 5465 5463 5459 5454 5450 5445 5440 5436 5433 5431 5429
5447 5451 5455 5459 5463 5467 5472 5478 5481 5485 5488 5487 5490 5489 5492 5493 5491 5490 5488 5485 5484 5484 5484 5483 5486 5485 5482 5482 5476 5474 5473 5471 5465 5464 5468 5470 5463 5457 5457 5455 5452 5450 5448 5445 5442 5437 5432 5430 5425 5419 5416 5412 5408 5409
5435 5439 5443 5446 5449 5453 5458 5463 5465 5470 5471 5471 5475 5475 5476 5476 5477 5475 5473 5468 5470 5470 5467 5466 5464 5462 5457 5456 5457 5456 5454 5449 5444 5442 5442 5441 5443 5434 5435 5433 5432 5429 5425 5423 5418 5415 5410 5406 5402 5397 5394 5391 5387 5387
5428 5431 5435 5437 5441 5445 5449 5452 5455 5457 5457 5460 5462 5461 5461 5463 5462 5461 5457 5458 5456 5453 5444 5442 5440 5437 5438 5439 5437 5432 5430 5425 5421 5417 5416 5414 5412 5411 5409 5409 5405 5403 5400 5397 5391 5388 5386 5382 5378 5375 5372 5369 5367 5367
5419 5423 5426 5429 5431 5434 5439 5443 5444 5445 5444 5447 5448 5446 5447 5446 5445 5443 5440 5441 5437 5431 5425 5420 5419 5418 5415 5415 5411 5409 5406 5400 5394 5395 5394 5391 5389 5388 5385 5382 5380 5377 5376 5375 5368 5367 5365 5361 5358 5356 5355 5353 5352 5353
5410 5411 5413 5416 5419 5421 5428 5429 5431 5432 5432 5434 5432 5429 5429 5428 5422 5419 5418 5421 5421 5416 5409 5404 5398 5397 5395 5391 5386 5385 5386 5378 5371 5373 5371 5366 5364 5369 5366 5362 5360 5360 5358 5356 5352 5349 5348 5346 5345 5344 5342 5342 5341 5340
5398 5397 5398 5398 5405 5411 5414 5415 5416 5418 5420 5418 5414 5410 5410 5407 5402 5399 5401 5406 5400 5396 5391 5385 5383 5378 5370 5367 5365 5363 5363 5358 5354 5350 5353 5349 5347 5346 5345 5346 5346 5346 5342 5339 5335 5331 5334 5334 5333 5333 5333 5332 5333 5332
5384 5381 5383 5388 5395 5399 5401 5402 5403 5404 5403 5400 5398 5397 5395 5389 5386 5382 5389 5385 5379 5376 5372 5368 5362 5358 5354 5352 5347 5347 5346 5343 5335 5330 5334 5334 5328 5323 5324 5325 5326 5329 5327 5321 5318 5318 5319 5322 5321 5323 5324 5324 5323 5322
5372 5369 5372 5383 5388 5391 5390 5392 5390 5388 5386 5386 5387 5384 5377 5369 5368 5373 5371 5368 5362 5358 5354 5349 5345 5342 5337 5334 5332 5330 5328 5324 5319 5316 5313 5311 5310 5308 5306 5304 5305 5308 5308 5305 5302 5301 5303 5308 5310 5312 5314 5315 5315 5314
5360 5366 5372 5377 5376 5379 5379 5378 5377 5377 5377 5376 5370 5366 5360 5357 5355 5357 5355 5353 5347 5341 5337 5335 5331 5327 5322 5319 5314 5312 5311 5307 5303 5299 5295 5294 5295 5294 5291 5287 5288 5290 5292 5294 5291 5292 5293 5297 5299 5301 5304 5305 5306 5305
5355 5361 5364 5364 5366 5366 5364 5365 5366 5367 5366 5359 5353 5349 5347 5347 5345 5343 5340 5336 5332 5327 5322 5319 5317 5316 5311 5309 5306 5302 5298 5293 5287 5283 5279 5278 5280 5282 5278 5273 5272 5273 5274 5276 5278 5280 5283 5285 5288 5290 5292 5294 5295 5295
5350 5352 5352 5352 5351 5351 5355 5353 5351 5352 5348 5345 5341 5337 5335 5336 5336 5330 5326 5324 5319 5314 5312 5310 5308 5304 5301 5296 5293 5291 5285 5279 5274 5267 5263 5263 5264 5264 5262 5261 5260 5261 5261 5261 5263 5267 5270 5273 5276 5278 5280 5283 5284 5285
5340 5341 5339 5338 5338 5342 5342 5341 5337 5335 5337 5335 5330 5324 5324 5323 5321 5321 5318 5314 5307 5304 5302 5299 5296 5292 5286 5282 5277 5271 5269 5268 5258 5254 5250 5248 5248 5247 5245 5246 5247 5247 5248 5247 5248 5253 5259 5261 5264 5267 5269 5272 5274 5276
5326 5326 5327 5328 5330 5331 5326 5328 5327 5325 5322 5319 5319 5317 5317 5313 5311 5312 5310 5303 5295 5293 5291 5287 5284 5282 5276 5270 5265 5258 5252 5250 5248 5240 5235 5231 5229 5228 5229 5231 5233 5233 5234 5235 5237 5241 5247 5252 5255 5257 5259 5263 5266 5268
5318 5319 5318 5318 5321 5323 5322 5315 5311 5311 5313 5311 5311 5310 5308 5305 5302 5302 5298 5293 5287 5283 5280 5276 5273 5268 5263 5256 5250 5245 5241 5237 5232 5227 5222 5218 5216 5216 5217 5220 5220 5221 5223 5225 5229 5234 5239 5243 5245 5248 5252 5255 5258 5261
Wind_Speed
44 41 38 36 35 33 33 34 30 28 22 20 21 20 19 19 19 19 17 13 14 13 13 13 12 11 11 13 14 15 16 15 14 13 13 13 14 14 15 16 18 19 20 20 21 20 22 23 23 24 22 21 23 23
48 43 40 38 35 34 33 34 32 29 26 23 21 22 23 22 21 21 19 18 17 17 15 15 15 16 16 16 15 14 12 14 12 14 16 18 19 20 21 20 22 21 21 15 15 16 16 15 20 23 22 21 23 25
49 49 43 42 37 36 33 33 34 33 30 28 26 25 23 26 25 23 23 21 19 17 20 21 19 19 18 20 21 19 19 18 17 16 16 18 17 15 16 16 17 23 22 16 15 22 19 22 28 26 27 28 30 33
56 53 47 44 42 40 37 37 36 35 35 33 31 30 27 25 27 28 25 24 25 26 25 23 24 25 26 22 21 21 22 22 22 21 19 17 17 18 17 16 20 28 25 22 21 25 25 31 34 35 34 35 36 38
60 57 53 48 44 43 42 38 37 37 36 35 34 33 32 29 27 28 31 29 29 30 30 30 29 30 33 31 24 23 23 23 23 24 23 22 22 25 21 19 24 33 35 34 33 32 34 35 37 40 42 43 45 46
63 60 60 57 52 48 48 44 39 37 38 39 39 39 37 34 32 32 31 31 32 33 32 31 31 30 30 32 32 32 31 29 29 28 28 26 29 33 31 28 31 34 38 41 43 43 42 42 43 44 46 48 50 51
63 64 63 60 56 53 50 48 45 43 41 41 44 44 43 40 38 37 36 35 36 35 34 34 30 29 32 33 34 35 36 36 36 36 33 33 33 35 35 35 38 39 41 46 50 52 53 52 48 49 51 53 54 54
66 66 65 64 61 56 52 50 49 48 47 46 46 48 48 46 44 43 42 41 41 40 38 38 33 31 33 35 37 39 40 40 40 40 39 38 39 41 43 40 41 42 45 47 47 46 45 47 50 53 55 57 59 60
64 64 64 64 62 58 54 53 52 52 53 53 52 51 51 51 48 47 48 47 45 45 44 39 38 35 34 37 39 40 41 40 43 42 41 38 35 38 37 36 38 44 44 43 44 46 48 50 52 54 55 56 58 59
59 60 63 63 58 59 58 57 56 56 58 59 56 55 53 50 51 52 51 50 50 47 47 43 39 41 41 38 40 42 43 43 44 43 42 42 40 40 41 44 47 47 46 46 47 50 53 56 56 56 56 56 57 59
51 54 53 55 56 58 59 61 63 61 60 59 54 53 55 53 52 54 55 53 52 50 45 41 41 44 44 46 44 45 47 47 49 49 47 48 44 43 45 50 51 53 55 56 57 57 57 58 57 56 57 60 60 61
49 54 57 58 56 54 56 58 58 55 52 52 53 53 54 55 55 55 57 52 47 47 44 40 39 42 46 49 49 51 51 52 53 52 53 52 48 53 57 57 60 62 64 64 63 61 59 59 61 63 63 61 61 60
45 44 41 40 40 41 44 49 52 53 51 51 52 53 54 53 55 55 51 47 45 43 43 42 42 43 44 47 50 51 54 55 56 56 55 53 56 57 60 62 63 64 64 65 64 64 62 60 62 64 63 63 63 63
46 45 45 44 41 40 42 44 46 47 46 47 50 51 51 52 51 49 48 46 47 46 46 47 48 48 48 48 50 51 53 56 58 57 53 57 59 63 63 63 64 65 67 68 67 67 66 63 63 60 58 59 60 60
57 52 55 52 52 50 49 47 45 44 43 44 44 47 48 50 51 50 50 50 51 51 51 51 52 53 53 54 55 56 57 58 57 55 58 60 62 64 65 66 68 70 70 68 68 68 68 68 66 61 58 57 58 59
61 64 63 59 56 55 53 52 51 51 51 50 50 51 52 52 53 54 54 55 55 55 55 57 57 58 58 59 59 61 61 60 57 59 64 67 69 71 73 74 73 71 72 73 72 70 69 67 65 63 59 58 58 57
57 57 57 56 56 56 56 55 55 55 53 53 52 52 53 55 55 56 57 57 58 57 58 59 60 62 63 64 63 63 60 57 62 66 69 73 76 77 73 70 71 73 72 72 72 69 66 64 63 62 59 56 57 56
50 51 52 53 54 55 55 55 56 56 55 54 54 57 57 57 58 59 60 61 61 63 63 64 65 66 68 67 65 63 67 71 74 77 76 73 73 71 69 70 69 70 70 69 68 66 65 63 62 61 60 59 58 57
52 52 51 52 53 53 54 54 54 54 56 55 57 58 59 59 61 61 58 59 61 61 64 66 70 71 67 66 68 70 73 75 75 75 75 71 70 69 69 69 69 69 70 69 68 64 62 62 63 63 63 64 64 61
52 51 52 52 51 52 54 57 57 56 55 52 55 55 55 53 54 54 55 55 55 59 64 68 67 66 69 71 71 71 71 71 72 74 72 70 71 72 71 73 73 69 68 69 67 66 67 67 66 66 67 68 68 64
36 36 37 38 35 39 45 43 43 47 46 46 48 50 50 49 49 50 52 57 60 64 65 64 66 68 69 70 70 70 71 72 74 77 76 77 75 76 76 76 75 74 75 73 73 72 71 70 69 68 66 65 65 63
27 27 27 29 30 32 35 35 37 39 44 46 48 48 51 52 53 55 60 62 64 64 65 66 69 71 72 72 73 75 77 79 81 81 82 82 82 80 80 78 77 75 73 71 69 69 67 64 62 61 59 57 55 53
31 32 33 34 32 33 37 37 39 41 43 45 49 53 54 55 58 60 63 66 65 59 61 66 66 66 70 71 73 74 74 75 77 77 77 76 74 74 72 67 64 61 58 55 56 56 56 52 49 48 46 44 42 40
33 35 37 39 42 43 39 38 37 39 42 46 48 51 50 51 53 55 60 59 54 55 57 58 61 65 67 70 72 72 71 69 69 69 67 67 67 63 59 58 57 53 48 45 44 44 44 39 34 31 31 28 27 32
39 43 46 49 46 42 41 42 46 44 41 42 46 49 50 54 58 60 59 55 56 57 57 56 55 56 60 62 61 60 57 58 58 59 57 58 58 58 56 51 49 44 40 40 42 43 37 32 27 27 20 22 25 27
44 46 47 45 42 42 44 45 47 47 51 54 55 56 59 63 66 68 59 59 55 51 48 47 49 51 52 51 51 48 46 44 46 51 54 51 54 56 53 48 43 38 35 38 41 42 38 30 30 28 26 22 25 26
50 55 50 47 49 46 44 46 45 49 53 57 57 58 62 68 71 68 63 52 47 43 44 44 44 45 46 44 45 48 50 52 55 56 55 55 54 53 53 52 48 41 37 38 41 43 43 35 33 27 24 21 23 28
59 57 52 52 46 41 45 46 48 51 54 55 56 61 66 73 75 62 50 40 37 38 40 41 42 43 48 51 52 52 51 50 51 52 54 54 51 48 48 49 46 42 42 40 42 42 40 36 30 25 24 23 24 29
43 41 44 44 42 46 51 51 52 54 51 53 60 67 68 65 51 41 32 34 34 35 39 41 41 39 36 31 33 37 40 42 44 42 40 38 34 28 37 41 43 42 39 40 40 40 35 34 30 27 27 25 22 28
44 43 44 46 48 49 47 47 49 51 53 57 62 60 51 40 27 31 30 27 31 35 35 34 32 32 32 35 37 38 41 43 44 48 50 49 46 43 44 44 41 38 36 40 38 39 34 30 29 26 29 25 21 27
40 47 50 50 46 44 46 49 50 53 59 54 49 49 40 30 21 19 24 29 37 34 32 32 33 37 44 46 47 48 43 38 41 44 47 46 45 45 44 41 40 39 35 34 36 37 33 32 30 28 24 22 22 25
40 32 30 33 37 39 42 52 53 45 42 40 36 34 27 28 21 19 26 33 40 38 33 34 38 40 43 44 43 42 40 36 40 44 44 43 42 39 43 35 32 29 25 28 33 33 32 29 27 24 21 22 24 23
31 34 36 38 45 41 34 36 38 35 30 28 24 24 24 27 27 27 31 34 40 41 39 40 42 42 40 39 39 36 35 40 40 38 34 31 28 26 28 26 22 20 22 25 27 26 25 24 22 20 22 23 22 19
Wind_Direction
243 245 248 252 256 259 263 266 271 274 273 281 284 282 285 285 286 287 291 292 293 289 288 293 298 301 308 305 299 293 291 286 281 278 276 274 275 275 273 276 276 279 276 280 286 288 279 284 289 288 293 296 296 300
243 241 242 246 253 256 259 263 267 271 274 274 276 281 278 280 278 276 279 285 288 281 283 283 285 291 295 297 298 300 301 305 298 298 290 285 283 284 283 280 282 282 285 293 297 291 292 288 287 288 292 299 298 302
242 243 242 243 248 249 254 258 265 273 274 273 278 280 278 274 272 274 271 273 274 280 277 281 282 283 285 286 289 287 286 288 287 294 292 291 294 293 285 287 285 281 291 294 298 296 303 300 294 298 299 297 300 303
240 239 239 240 245 249 253 256 262 267 272 275 274 277 278 276 270 269 271 269 270 271 271 275 283 287 284 278 275 277 281 282 281 281 281 281 283 278 274 274 274 279 284 294 295 297 302 299 299 301 303 301 300 301
238 236 236 237 241 248 251 255 259 265 266 268 272 272 275 277 273 268 272 269 268 268 271 271 274 274 273 270 261 261 262 268 271 275 274 273 276 277 271 269 269 273 288 297 296 294 293 292 293 296 299 298 301 304
234 236 240 237 240 242 247 253 257 261 265 265 270 270 270 272 273 270 270 270 269 271 271 268 270 270 271 268 268 263 259 258 260 260 261 263 266 270 274 272 269 272 278 282 286 290 293 292 293 294 296 295 296 299
233 236 239 240 241 242 243 250 254 260 261 266 267 267 267 268 269 270 273 274 274 274 273 272 272 269 269 267 265 265 267 265 265 264 265 268 268 271 273 277 278 284 285 281 280 284 288 292 298 300 301 301 301 301
231 234 237 239 241 242 242 246 251 258 261 264 268 267 267 268 268 271 273 275 276 273 273 273 268 262 263 263 266 269 268 269 267 270 273 275 278 279 280 283 283 281 279 281 285 292 296 296 297 299 300 301 302 303
230 232 234 238 239 238 242 247 251 256 261 263 265 264 264 264 266 269 272 273 274 274 273 272 268 263 260 261 263 266 268 270 270 272 273 277 281 284 289 288 288 288 289 292 292 294 294 295 297 298 299 300 300 301
229 231 233 234 238 242 245 248 252 254 258 262 262 262 261 262 264 268 269 271 275 276 274 272 267 262 262 262 261 263 265 268 271 271 273 277 281 284 287 285 283 288 294 291 288 292 297 303 303 302 300 301 301 300
228 231 232 235 239 243 247 250 253 252 253 254 255 260 261 262 264 268 270 272 273 274 273 271 266 264 261 263 263 264 268 270 272 274 278 280 283 285 284 281 285 288 291 296 300 302 301 299 298 298 299 299 299 299
223 225 226 230 234 236 239 243 245 245 248 252 256 258 262 265 268 270 270 273 275 274 271 269 266 262 262 263 263 265 268 270 274 279 280 281 284 282 282 284 284 286 290 295 297 298 299 298 297 298 298 298 299 300
229 221 218 223 231 238 243 245 245 246 248 251 254 258 261 264 266 267 268 271 273 273 271 271 270 270 268 266 266 268 270 273 274 277 281 287 284 284 284 285 288 291 293 295 297 299 296 295 296 296 297 299 301 300
222 228 228 232 235 242 245 247 248 250 251 253 256 259 260 259 257 261 266 270 271 272 272 271 272 274 275 275 275 275 276 277 279 283 288 286 284 285 288 290 292 295 296 297 298 298 297 297 297 298 300 301 300 298
230 234 240 242 243 244 243 245 245 244 246 249 252 254 255 258 261 265 268 270 272 273 273 273 273 274 276 277 278 281 283 285 289 290 286 285 286 288 291 294 296 296 296 295 294 293 293 295 297 299 298 297 294 295
225 229 234 237 241 242 243 244 246 247 247 250 253 257 259 263 266 267 267 268 269 271 273 275 276 277 278 279 282 283 285 290 289 284 284 286 287 288 290 291 291 291 290 291 292 293 294 294 295 295 295 295 294 295
224 226 229 231 234 237 240 241 243 244 246 253 254 258 260 262 264 266 268 269 270 272 274 275 277 278 281 282 284 287 287 282 280 282 284 286 287 288 288 287 286 287 288 289 290 292 293 293 293 294 294 292 292 294
228 230 232 233 234 237 238 239 241 243 246 249 252 256 260 262 265 266 269 270 271 272 272 273 275 276 280 283 284 284 280 280 280 280 281 282 282 281 282 283 283 284 286 286 288 290 291 292 292 291 292 292 293 293
232 232 234 236 238 240 242 244 244 246 247 249 252 255 258 261 262 264 266 268 269 270 271 272 275 278 279 279 278 277 278 280 280 280 281 283 283 285 285 285 285 285 285 286 286 289 291 290 291 292 292 292 292 292
229 232 233 235 237 238 241 243 245 245 245 247 248 252 255 258 261 264 266 268 269 271 272 274 277 278 278 277 277 277 277 279 280 281 281 283 283 284 285 285 285 286 288 289 291 291 290 290 291 291 291 291 290 291
236 236 241 246 246 246 247 250 251 252 252 255 255 256 259 261 264 267 269 271 273 275 276 277 276 275 275 276 278 280 281 282 282 283 284 283 283 283 284 285 288 288 288 289 290 290 291 292 292 291 289 288 287 287
231 233 236 240 245 248 250 254 256 258 259 261 261 263 265 267 269 272 272 274 276 281 281 280 279 280 281 283 283 283 283 283 283 282 283 284 286 288 288 288 289 290 291 292 291 290 290 289 286 285 284 283 283 284
241 244 253 254 262 263 259 260 263 265 270 269 270 272 273 274 275 275 274 275 277 278 279 280 282 282 283 284 283 282 282 281 281 283 286 287 287 287 289 292 291 290 288 288 286 286 286 284 285 285 284 282 281 280
253 259 262 265 265 270 274 276 277 284 282 277 277 278 277 276 275 276 274 276 288 288 287 287 285 283 282 282 281 283 284 285 285 287 287 286 286 289 288 286 286 289 291 288 286 282 279 279 282 280 281 285 286 280
259 255 267 272 271 271 284 291 294 295 291 285 283 283 287 291 297 296 294 298 296 293 290 289 288 285 282 282 282 283 284 285 285 283 282 283 285 285 285 286 289 291 288 285 280 277 276 271 277 283 276 282 285 283
247 262 265 264 266 275 284 283 285 288 286 285 288 293 297 295 297 300 303 303 298 295 293 289 286 283 282 286 288 288 288 285 284 281 284 286 282 282 285 284 280 277 278 273 270 271 268 267 275 281 259 269 286 288
249 247 251 260 271 277 271 267 271 275 279 284 289 294 296 295 296 300 305 302 297 294 292 289 287 285 286 286 283 284 282 279 277 281 280 279 278 279 279 279 276 271 264 263 262 261 261 260 267 272 257 275 289 281
239 243 262 270 271 265 259 264 270 277 283 286 290 290 292 294 297 302 302 302 294 290 288 287 285 284 284 284 284 288 293 292 290 285 283 282 283 282 281 279 279 276 269 264 264 263 262 261 263 259 263 263 276 267
242 250 254 257 252 253 260 266 271 278 286 286 287 290 292 294 301 304 297 289 287 287 284 282 283 292 299 304 305 306 305 302 299 298 297 295 294 300 284 278 275 274 271 263 259 262 262 260 257 258 252 257 265 250
233 238 242 245 250 260 269 274 277 280 282 284 287 287 288 296 302 299 296 294 297 293 294 295 293 295 296 298 301 303 302 297 289 287 288 288 290 287 282 281 282 282 279 269 258 253 253 258 264 262 254 248 251 248
239 247 254 258 260 264 269 273 274 277 284 286 284 286 294 300 277 285 299 311 308 305 305 300 296 298 303 305 307 305 302 299 295 296 294 290 288 281 280 281 279 279 282 269 253 249 245 247 257 268 260 247 246 246
252 253 260 267 268 267 268 276 280 277 270 271 280 289 293 287 291 304 312 303 299 307 306 297 297 301 302 304 305 304 301 304 302 299 296 295 289 281 275 277 276 273 272 259 247 244 240 245 252 259 245 237 239 242
244 251 258 263 265 270 271 270 269 274 281 285 282 281 282 288 303 316 306 299 295 296 294 292 296 303 307 308 305 300 301 304 306 306 302 294 284 276 270 256 253 262 257 245 239 239 235 242 246 238 231 231 235 243